| time (UTC) | temp F | wind direction | speed knots | gust knots | rain 1hr in | rain 24hr in | rain mn in | humidity % | barometer mb |
| 20260507112614 | 51 | 211 | 3.5 | 4.3 | 0.00 | 0.00 | 0.00 | 88 | 1020.7 |
| 20260507112111 | 51 | 183 | 5.2 | 6.1 | 0.00 | 0.00 | 0.00 | 88 | 1020.8 |
| 20260507111608 | 51 | 203 | 1.7 | 1.7 | 0.00 | 0.00 | 0.00 | 87 | 1021.0 |
| 20260507111104 | 51 | 207 | 4.3 | 5.2 | 0.00 | 0.00 | 0.00 | 87 | 1020.8 |
| 20260507110601 | 51 | 206 | 3.5 | 4.3 | 0.00 | 0.00 | 0.00 | 88 | 1020.7 |
| 20260507110057 | 51 | 196 | 2.6 | 2.6 | 0.00 | 0.00 | 0.00 | 87 | 1020.9 |
| 20260507105554 | 51 | 214 | 2.6 | 2.6 | 0.00 | 0.00 | 0.00 | 87 | 1020.9 |
| 20260507105050 | 52 | 174 | 3.5 | 5.2 | 0.00 | 0.00 | 0.00 | 88 | 1020.9 |
| 20260507104548 | 52 | 211 | 2.6 | 2.6 | 0.00 | 0.00 | 0.00 | 88 | 1020.9 |
| 20260507104044 | 52 | 196 | 3.5 | 4.3 | 0.00 | 0.00 | 0.00 | 88 | 1020.9 |
| 20260507103540 | 52 | 206 | 2.6 | 2.6 | 0.00 | 0.00 | 0.00 | 88 | 1020.9 |
| 20260507103037 | 52 | 216 | 0.9 | 0.9 | 0.00 | 0.00 | 0.00 | 88 | 1021.1 |
| 20260507102534 | 52 | 225 | 0.0 | 0.0 | 0.00 | 0.00 | 0.00 | 88 | 1021.0 |
| 20260507102031 | 52 | 198 | 3.5 | 4.3 | 0.00 | 0.00 | 0.00 | 88 | 1021.1 |
| 20260507101525 | 52 | 174 | 4.3 | 5.2 | 0.00 | 0.00 | 0.00 | 88 | 1021.0 |
| 20260507101022 | 52 | 202 | 1.7 | 1.7 | 0.00 | 0.00 | 0.00 | 88 | 1020.9 |
| 20260507100519 | 52 | 185 | 4.3 | 4.3 | 0.00 | 0.00 | 0.00 | 88 | 1021.0 |
| 20260507100017 | 52 | 176 | 4.3 | 6.1 | 0.00 | 0.00 | 0.00 | 88 | 1021.0 |
| 20260507095515 | 52 | 167 | 2.6 | 2.6 | 0.00 | 0.00 | 0.00 | 88 | 1021.1 |
| 20260507095011 | 52 | 201 | 2.6 | 2.6 | 0.00 | 0.00 | 0.00 | 89 | 1021.2 |
| 20260507094508 | 52 | 199 | 2.6 | 4.3 | 0.00 | 0.00 | 0.00 | 89 | 1021.1 |
| 20260507094005 | 51 | 223 | 0.0 | 0.9 | 0.00 | 0.00 | 0.00 | 89 | 1021.1 |
| 20260507093502 | 51 | 202 | 2.6 | 2.6 | 0.00 | 0.00 | 0.00 | 89 | 1021.1 |
| 20260507093001 | 51 | 210 | 1.7 | 1.7 | 0.00 | 0.00 | 0.00 | 90 | 1021.1 |
| 20260507092456 | 51 | 202 | 0.9 | 2.6 | 0.00 | 0.00 | 0.00 | 90 | 1020.9 |
| 20260507091953 | 51 | 206 | 1.7 | 2.6 | 0.00 | 0.00 | 0.00 | 90 | 1020.9 |
| 20260507091450 | 51 | 207 | 0.9 | 0.9 | 0.00 | 0.00 | 0.00 | 90 | 1021.0 |
| 20260507090946 | 51 | 276 | 0.0 | 0.0 | 0.00 | 0.00 | 0.00 | 90 | 1020.8 |
| 20260507090442 | 51 | 191 | 2.6 | 2.6 | 0.00 | 0.00 | 0.00 | 90 | 1021.1 |
| 20260507085939 | 51 | 214 | 0.9 | 1.7 | 0.00 | 0.00 | 0.00 | 90 | 1021.0 |
| 20260507085436 | 51 | 251 | 0.9 | 1.7 | 0.00 | 0.00 | 0.00 | 90 | 1021.0 |
| 20260507084933 | 51 | 271 | 1.7 | 1.7 | 0.00 | 0.00 | 0.00 | 90 | 1021.3 |
| 20260507084430 | 51 | 255 | 0.0 | 0.9 | 0.00 | 0.00 | 0.00 | 91 | 1021.1 |
| 20260507083927 | 51 | 215 | 0.0 | 0.0 | 0.00 | 0.00 | 0.00 | 91 | 1021.0 |
| 20260507083423 | 51 | 194 | 5.2 | 6.1 | 0.00 | 0.00 | 0.00 | 91 | 1021.0 |
| 20260507082919 | 51 | 208 | 2.6 | 4.3 | 0.00 | 0.00 | 0.00 | 91 | 1021.0 |
| 20260507082416 | 52 | 235 | 0.9 | 1.7 | 0.00 | 0.00 | 0.00 | 92 | 1020.9 |
| 20260507081913 | 51 | 216 | 1.7 | 1.7 | 0.00 | 0.00 | 0.00 | 92 | 1020.9 |
| 20260507081409 | 51 | 251 | 0.0 | 0.0 | 0.00 | 0.00 | 0.00 | 92 | 1021.1 |
| 20260507080906 | 52 | 224 | 2.6 | 2.6 | 0.00 | 0.00 | 0.00 | 92 | 1020.7 |
| 20260507080402 | 52 | 235 | 1.7 | 1.7 | 0.00 | 0.00 | 0.00 | 92 | 1020.7 |
| 20260507075857 | 52 | 191 | 1.7 | 2.6 | 0.00 | 0.00 | 0.00 | 92 | 1020.8 |
| 20260507075353 | 52 | 265 | 0.9 | 1.7 | 0.00 | 0.00 | 0.00 | 92 | 1020.9 |
| 20260507074850 | 52 | 254 | 0.9 | 0.9 | 0.00 | 0.00 | 0.00 | 92 | 1020.8 |
| 20260507074347 | 52 | 222 | 0.9 | 0.9 | 0.00 | 0.00 | 0.00 | 92 | 1020.9 |
| 20260507073844 | 52 | 210 | 2.6 | 2.6 | 0.00 | 0.00 | 0.00 | 92 | 1020.8 |
| 20260507073341 | 52 | 233 | 2.6 | 4.3 | 0.00 | 0.00 | 0.00 | 92 | 1020.6 |
| 20260507072838 | 52 | 204 | 5.2 | 6.1 | 0.00 | 0.00 | 0.00 | 92 | 1020.7 |
| 20260507072336 | 52 | 242 | 0.9 | 1.7 | 0.00 | 0.00 | 0.00 | 92 | 1020.6 |
| 20260507071833 | 52 | 223 | 2.6 | 2.6 | 0.00 | 0.00 | 0.00 | 92 | 1020.9 |
| 20260507071330 | 53 | 220 | 0.9 | 0.9 | 0.00 | 0.00 | 0.00 | 92 | 1020.6 |
| 20260507070826 | 53 | 214 | 5.2 | 6.1 | 0.00 | 0.00 | 0.00 | 92 | 1020.7 |
| 20260507070324 | 53 | 204 | 2.6 | 2.6 | 0.00 | 0.00 | 0.00 | 92 | 1020.6 |
| 20260507065820 | 53 | 243 | 0.9 | 1.7 | 0.00 | 0.00 | 0.00 | 92 | 1020.6 |
| 20260507065317 | 53 | 188 | 7.0 | 8.7 | 0.00 | 0.00 | 0.00 | 91 | 1020.9 |
| 20260507064814 | 53 | 176 | 3.5 | 4.3 | 0.00 | 0.00 | 0.00 | 91 | 1020.7 |
| 20260507064313 | 53 | 201 | 3.5 | 5.2 | 0.00 | 0.00 | 0.00 | 91 | 1020.6 |
| 20260507063810 | 53 | 196 | 5.2 | 6.1 | 0.00 | 0.00 | 0.00 | 91 | 1020.6 |
| 20260507063307 | 53 | 213 | 0.9 | 1.7 | 0.00 | 0.00 | 0.00 | 91 | 1020.6 |
| 20260507062804 | 53 | 196 | 1.7 | 2.6 | 0.00 | 0.00 | 0.00 | 91 | 1020.6 |
| 20260507062301 | 53 | 202 | 6.1 | 6.1 | 0.00 | 0.00 | 0.00 | 91 | 1020.6 |
| 20260507061759 | 53 | 200 | 1.7 | 2.6 | 0.00 | 0.00 | 0.00 | 91 | 1020.7 |
| 20260507061256 | 53 | 194 | 2.6 | 2.6 | 0.00 | 0.00 | 0.00 | 91 | 1020.8 |
| 20260507060754 | 53 | 215 | 4.3 | 6.1 | 0.00 | 0.00 | 0.00 | 90 | 1020.6 |
| 20260507060251 | 53 | 217 | 2.6 | 2.6 | 0.00 | 0.00 | 0.00 | 90 | 1020.8 |
| 20260507055747 | 53 | 171 | 4.3 | 5.2 | 0.00 | 0.00 | 0.00 | 90 | 1020.8 |
| 20260507055243 | 53 | 201 | 6.1 | 6.1 | 0.00 | 0.00 | 0.00 | 90 | 1020.6 |
| 20260507054739 | 53 | 208 | 2.6 | 4.3 | 0.00 | 0.00 | 0.00 | 90 | 1020.8 |
| 20260507054236 | 53 | 201 | 4.3 | 4.3 | 0.00 | 0.00 | 0.00 | 90 | 1020.7 |
| 20260507053733 | 54 | 190 | 3.5 | 5.2 | 0.00 | 0.00 | 0.00 | 90 | 1020.8 |
| 20260507053231 | 54 | 206 | 1.7 | 1.7 | 0.00 | 0.00 | 0.00 | 89 | 1020.9 |
| 20260507052730 | 54 | 226 | 0.9 | 0.9 | 0.00 | 0.00 | 0.00 | 89 | 1020.7 |
| 20260507052225 | 54 | 212 | 0.9 | 1.7 | 0.00 | 0.00 | 0.00 | 89 | 1020.7 |
| 20260507051724 | 54 | 200 | 3.5 | 4.3 | 0.00 | 0.00 | 0.00 | 89 | 1020.8 |
| 20260507051220 | 54 | 238 | 2.6 | 4.3 | 0.00 | 0.00 | 0.00 | 89 | 1020.7 |
| 20260507050717 | 54 | 204 | 3.5 | 4.3 | 0.00 | 0.00 | 0.00 | 88 | 1020.7 |
| 20260507050214 | 54 | 198 | 3.5 | 4.3 | 0.00 | 0.00 | 0.00 | 88 | 1020.9 |
| 20260507045711 | 55 | 207 | 1.7 | 1.7 | 0.00 | 0.00 | 0.00 | 87 | 1020.9 |
| 20260507045207 | 55 | 180 | 4.3 | 6.1 | 0.00 | 0.00 | 0.00 | 87 | 1020.8 |
| 20260507044704 | 55 | 195 | 0.9 | 2.6 | 0.00 | 0.00 | 0.00 | 87 | 1020.8 |
| 20260507044201 | 55 | 214 | 0.9 | 0.9 | 0.00 | 0.00 | 0.00 | 87 | 1020.9 |
| 20260507043657 | 55 | 214 | 2.6 | 2.6 | 0.00 | 0.00 | 0.00 | 86 | 1020.9 |
| 20260507043154 | 55 | 199 | 6.1 | 7.0 | 0.00 | 0.00 | 0.00 | 86 | 1020.8 |
| 20260507042650 | 55 | 246 | 0.9 | 0.9 | 0.00 | 0.00 | 0.00 | 86 | 1020.8 |
| 20260507042145 | 55 | 221 | 3.5 | 4.3 | 0.00 | 0.00 | 0.00 | 86 | 1020.9 |
| 20260507041643 | 55 | 219 | 2.6 | 2.6 | 0.00 | 0.00 | 0.00 | 86 | 1020.6 |
| 20260507041139 | 55 | 216 | 3.5 | 4.3 | 0.00 | 0.00 | 0.00 | 86 | 1020.7 |
| 20260507040636 | 55 | 200 | 3.5 | 4.3 | 0.00 | 0.00 | 0.00 | 85 | 1020.5 |
| 20260507040132 | 55 | 178 | 3.5 | 5.2 | 0.00 | 0.00 | 0.00 | 85 | 1020.8 |
| 20260507035628 | 55 | 201 | 3.5 | 4.3 | 0.00 | 0.00 | 0.00 | 85 | 1020.6 |
| 20260507035124 | 55 | 203 | 0.9 | 1.7 | 0.00 | 0.00 | 0.00 | 85 | 1020.5 |
| 20260507034621 | 55 | 190 | 2.6 | 2.6 | 0.00 | 0.00 | 0.00 | 84 | 1020.5 |
| 20260507034119 | 56 | 200 | 1.7 | 1.7 | 0.00 | 0.00 | 0.00 | 84 | 1020.5 |
| 20260507033617 | 56 | 260 | 2.6 | 2.6 | 0.00 | 0.00 | 0.00 | 84 | 1020.5 |
| 20260507033114 | 56 | 196 | 3.5 | 4.3 | 0.00 | 0.00 | 0.00 | 83 | 1020.4 |
| 20260507032611 | 56 | 285 | 2.6 | 2.6 | 0.00 | 0.00 | 0.00 | 83 | 1020.4 |
| 20260507032107 | 56 | 250 | 0.0 | 0.0 | 0.00 | 0.00 | 0.00 | 83 | 1020.3 |
| 20260507031604 | 56 | 246 | 0.9 | 1.7 | 0.00 | 0.00 | 0.00 | 82 | 1020.2 |
| 20260507031101 | 56 | 259 | 0.9 | 0.9 | 0.00 | 0.00 | 0.00 | 82 | 1020.4 |
| 20260507030557 | 56 | 214 | 2.6 | 4.3 | 0.00 | 0.00 | 0.00 | 82 | 1020.4 |
| 20260507030056 | 56 | 252 | 2.6 | 2.6 | 0.00 | 0.00 | 0.00 | 82 | 1020.3 |
| 20260507025552 | 56 | 228 | 1.7 | 1.7 | 0.00 | 0.00 | 0.00 | 82 | 1020.3 |
| 20260507025049 | 56 | 212 | 2.6 | 4.3 | 0.00 | 0.00 | 0.00 | 82 | 1020.3 |
| 20260507024547 | 56 | 179 | 1.7 | 4.3 | 0.00 | 0.00 | 0.00 | 82 | 1020.2 |
| 20260507024044 | 56 | 231 | 2.6 | 5.2 | 0.00 | 0.00 | 0.00 | 82 | 1020.2 |
| 20260507023539 | 56 | 268 | 0.9 | 0.9 | 0.00 | 0.00 | 0.00 | 82 | 1020.3 |
| 20260507023038 | 57 | 276 | 2.6 | 4.3 | 0.00 | 0.00 | 0.00 | 81 | 1020.0 |
| 20260507022534 | 57 | 227 | 0.0 | 0.9 | 0.00 | 0.00 | 0.00 | 81 | 1019.9 |
| 20260507022029 | 57 | 209 | 1.7 | 2.6 | 0.00 | 0.00 | 0.00 | 81 | 1020.1 |
| 20260507021525 | 57 | 210 | 0.0 | 0.0 | 0.00 | 0.00 | 0.00 | 81 | 1020.1 |
| 20260507021022 | 57 | 216 | 4.3 | 6.1 | 0.00 | 0.00 | 0.00 | 81 | 1020.0 |
| 20260507020520 | 57 | 231 | 1.7 | 1.7 | 0.00 | 0.00 | 0.00 | 81 | 1019.8 |
| 20260507020016 | 57 | 206 | 3.5 | 4.3 | 0.00 | 0.00 | 0.00 | 81 | 1019.9 |
| 20260507015515 | 57 | 230 | 2.6 | 4.3 | 0.00 | 0.00 | 0.00 | 81 | 1019.9 |
| 20260507015012 | 57 | 234 | 0.9 | 0.9 | 0.00 | 0.00 | 0.00 | 81 | 1020.2 |
| 20260507014508 | 57 | 243 | 2.6 | 2.6 | 0.00 | 0.00 | 0.00 | 81 | 1020.1 |
| 20260507014004 | 56 | 254 | 0.9 | 1.7 | 0.00 | 0.00 | 0.00 | 82 | 1020.2 |
| 20260507013501 | 57 | 227 | 3.5 | 5.2 | 0.00 | 0.00 | 0.00 | 82 | 1020.2 |
| 20260507012958 | 57 | 212 | 7.0 | 8.7 | 0.00 | 0.00 | 0.00 | 81 | 1020.1 |
| 20260507012455 | 57 | 272 | 1.7 | 2.6 | 0.00 | 0.00 | 0.00 | 81 | 1020.2 |
| 20260507011951 | 57 | 223 | 2.6 | 2.6 | 0.00 | 0.00 | 0.00 | 82 | 1020.0 |
| 20260507011448 | 57 | 175 | 3.5 | 5.2 | 0.00 | 0.00 | 0.00 | 82 | 1020.1 |
| 20260507010944 | 57 | 191 | 4.3 | 5.2 | 0.00 | 0.00 | 0.00 | 81 | 1020.0 |
| 20260507010439 | 57 | 189 | 5.2 | 7.0 | 0.00 | 0.00 | 0.00 | 81 | 1020.2 |
| 20260507005936 | 57 | 212 | 2.6 | 2.6 | 0.00 | 0.00 | 0.00 | 81 | 1020.1 |
| 20260507005433 | 57 | 214 | 4.3 | 5.2 | 0.00 | 0.00 | 0.00 | 81 | 1020.2 |
| 20260507004930 | 57 | 203 | 4.3 | 6.1 | 0.00 | 0.00 | 0.00 | 81 | 1020.1 |
| 20260507004427 | 57 | 155 | 0.9 | 2.6 | 0.00 | 0.00 | 0.00 | 81 | 1020.2 |
| 20260507003924 | 57 | 221 | 4.3 | 7.0 | 0.00 | 0.00 | 0.00 | 81 | 1020.1 |
| 20260507003419 | 57 | 190 | 5.2 | 7.0 | 0.00 | 0.00 | 0.00 | 81 | 1020.4 |
| 20260507002914 | 57 | 199 | 2.6 | 2.6 | 0.00 | 0.00 | 0.00 | 81 | 1020.3 |
| 20260507002411 | 57 | 245 | 3.5 | 5.2 | 0.00 | 0.00 | 0.00 | 81 | 1020.1 |
| 20260507001908 | 57 | 200 | 6.1 | 7.0 | 0.00 | 0.00 | 0.00 | 81 | 1020.2 |
| 20260507001405 | 57 | 197 | 3.5 | 5.2 | 0.00 | 0.00 | 0.00 | 81 | 1020.2 |
| 20260507000902 | 57 | 203 | 3.5 | 4.3 | 0.00 | 0.00 | 0.00 | 80 | 1020.2 |
| 20260507000358 | 57 | 201 | 2.6 | 4.3 | 0.00 | 0.00 | 0.00 | 81 | 1020.2 |
| 20260506235853 | 57 | 228 | 2.6 | 4.3 | 0.00 | 0.00 | 0.00 | 81 | 1020.0 |
| 20260506235351 | 57 | 205 | 3.5 | 5.2 | 0.00 | 0.00 | 0.00 | 80 | 1020.2 |
| 20260506234846 | 57 | 272 | 1.7 | 1.7 | 0.00 | 0.00 | 0.00 | 80 | 1020.1 |
| 20260506234344 | 56 | 205 | 7.8 | 7.8 | 0.00 | 0.00 | 0.00 | 80 | 1020.2 |
| 20260506233842 | 56 | 198 | 7.0 | 7.8 | 0.00 | 0.00 | 0.00 | 81 | 1020.5 |
| 20260506233337 | 56 | 205 | 4.3 | 6.1 | 0.00 | 0.00 | 0.00 | 81 | 1020.4 |
| 20260506232834 | 56 | 210 | 2.6 | 4.3 | 0.00 | 0.00 | 0.00 | 80 | 1020.4 |
| 20260506232330 | 56 | 252 | 2.6 | 5.2 | 0.00 | 0.00 | 0.00 | 80 | 1020.4 |
| 20260506231827 | 56 | 190 | 4.3 | 6.1 | 0.00 | 0.00 | 0.00 | 80 | 1020.5 |
| 20260506231325 | 56 | 188 | 4.3 | 5.2 | 0.00 | 0.00 | 0.00 | 80 | 1020.4 |
| 20260506230822 | 56 | 199 | 7.8 | 9.6 | 0.00 | 0.00 | 0.00 | 80 | 1020.4 |
| 20260506230318 | 56 | 214 | 0.9 | 1.7 | 0.00 | 0.00 | 0.00 | 81 | 1020.4 |
| 20260506225814 | 56 | 181 | 4.3 | 6.1 | 0.00 | 0.00 | 0.00 | 80 | 1020.5 |
| 20260506225312 | 57 | 271 | 2.6 | 4.3 | 0.00 | 0.00 | 0.00 | 80 | 1020.6 |
| 20260506224809 | 57 | 197 | 6.1 | 7.0 | 0.00 | 0.00 | 0.00 | 80 | 1020.3 |
| 20260506224306 | 57 | 187 | 7.8 | 11.3 | 0.00 | 0.00 | 0.00 | 80 | 1020.4 |
| 20260506223802 | 56 | 257 | 2.6 | 7.0 | 0.00 | 0.00 | 0.00 | 80 | 1020.3 |
| 20260506223257 | 57 | 201 | 6.1 | 11.3 | 0.00 | 0.00 | 0.00 | 78 | 1020.4 |
| 20260506222754 | 57 | 264 | 3.5 | 4.3 | 0.00 | 0.00 | 0.00 | 79 | 1020.5 |
| 20260506222249 | 56 | 236 | 7.8 | 8.7 | 0.00 | 0.00 | 0.00 | 78 | 1020.4 |
| 20260506221743 | 57 | 221 | 5.2 | 7.0 | 0.00 | 0.00 | 0.00 | 78 | 1020.6 |
| 20260506221240 | 57 | 238 | 4.3 | 5.2 | 0.00 | 0.00 | 0.00 | 77 | 1020.5 |
| 20260506220737 | 58 | 288 | 2.6 | 2.6 | 0.00 | 0.00 | 0.00 | 77 | 1020.2 |
| 20260506220232 | 57 | 204 | 6.1 | 7.0 | 0.00 | 0.00 | 0.00 | 76 | 1020.5 |
| 20260506215729 | 58 | 163 | 5.2 | 7.0 | 0.00 | 0.00 | 0.00 | 76 | 1020.6 |
| 20260506215225 | 57 | 204 | 6.1 | 7.8 | 0.00 | 0.00 | 0.00 | 76 | 1020.6 |
| 20260506214721 | 58 | 257 | 5.2 | 7.0 | 0.00 | 0.00 | 0.00 | 75 | 1020.4 |
| 20260506214219 | 58 | 210 | 6.1 | 7.0 | 0.00 | 0.00 | 0.00 | 75 | 1020.5 |
| 20260506213717 | 57 | 224 | 4.3 | 7.0 | 0.00 | 0.00 | 0.00 | 76 | 1020.7 |
| 20260506213214 | 57 | 196 | 8.7 | 9.6 | 0.00 | 0.00 | 0.00 | 77 | 1020.5 |
| 20260506212711 | 57 | 199 | 4.3 | 6.1 | 0.00 | 0.00 | 0.00 | 76 | 1020.7 |
| 20260506212206 | 57 | 203 | 5.2 | 6.1 | 0.00 | 0.00 | 0.00 | 76 | 1020.6 |
| 20260506211702 | 58 | 192 | 2.6 | 4.3 | 0.00 | 0.00 | 0.00 | 76 | 1020.7 |
| 20260506211158 | 58 | 196 | 2.6 | 5.2 | 0.00 | 0.00 | 0.00 | 76 | 1020.6 |
| 20260506210655 | 57 | 246 | 3.5 | 4.3 | 0.00 | 0.00 | 0.00 | 76 | 1020.7 |
| 20260506210152 | 58 | 236 | 5.2 | 6.1 | 0.00 | 0.00 | 0.00 | 76 | 1020.5 |
| 20260506205649 | 57 | 284 | 4.3 | 6.1 | 0.00 | 0.00 | 0.00 | 77 | 1020.4 |
| 20260506205144 | 57 | 224 | 4.3 | 7.0 | 0.00 | 0.00 | 0.00 | 77 | 1020.6 |
| 20260506204642 | 57 | 258 | 8.7 | 8.7 | 0.00 | 0.00 | 0.00 | 76 | 1020.5 |
| 20260506204139 | 58 | 259 | 3.5 | 4.3 | 0.00 | 0.00 | 0.00 | 76 | 1020.5 |
| 20260506203637 | 58 | 275 | 2.6 | 2.6 | 0.00 | 0.00 | 0.00 | 76 | 1020.4 |
| 20260506203134 | 57 | 238 | 2.6 | 5.2 | 0.00 | 0.00 | 0.00 | 77 | 1020.6 |
| 20260506202632 | 57 | 197 | 6.1 | 7.8 | 0.00 | 0.00 | 0.00 | 78 | 1020.4 |
| 20260506202127 | 57 | 255 | 3.5 | 6.1 | 0.00 | 0.00 | 0.00 | 77 | 1020.7 |
| 20260506201625 | 57 | 220 | 3.5 | 4.3 | 0.00 | 0.00 | 0.00 | 77 | 1020.3 |
| 20260506201121 | 57 | 231 | 8.7 | 11.3 | 0.00 | 0.00 | 0.00 | 77 | 1020.6 |
| 20260506200618 | 57 | 202 | 5.2 | 5.2 | 0.00 | 0.00 | 0.00 | 78 | 1020.4 |
| 20260506200115 | 57 | 199 | 5.2 | 7.0 | 0.00 | 0.00 | 0.00 | 78 | 1020.4 |
| 20260506195611 | 56 | 190 | 9.6 | 11.3 | 0.00 | 0.00 | 0.00 | 79 | 1020.6 |
| 20260506195108 | 57 | 169 | 7.8 | 9.6 | 0.00 | 0.00 | 0.00 | 79 | 1020.4 |
| 20260506194605 | 56 | 190 | 4.3 | 6.1 | 0.00 | 0.00 | 0.00 | 80 | 1020.2 |
| 20260506194101 | 56 | 194 | 6.1 | 7.0 | 0.00 | 0.00 | 0.00 | 80 | 1020.2 |
| 20260506193559 | 56 | 267 | 3.5 | 4.3 | 0.00 | 0.00 | 0.00 | 80 | 1020.4 |
| 20260506193056 | 56 | 184 | 2.6 | 4.3 | 0.00 | 0.00 | 0.00 | 82 | 1020.5 |
| 20260506192553 | 56 | 217 | 4.3 | 5.2 | 0.00 | 0.00 | 0.00 | 81 | 1020.2 |
| 20260506192049 | 56 | 148 | 4.3 | 6.1 | 0.00 | 0.00 | 0.00 | 82 | 1020.5 |
| 20260506191546 | 55 | 176 | 2.6 | 2.6 | 0.00 | 0.00 | 0.00 | 83 | 1020.3 |
| 20260506191042 | 55 | 176 | 5.2 | 6.1 | 0.00 | 0.00 | 0.00 | 83 | 1020.3 |
| 20260506190539 | 56 | 208 | 4.3 | 6.1 | 0.00 | 0.00 | 0.00 | 82 | 1020.3 |
| 20260506190036 | 56 | 230 | 2.6 | 2.6 | 0.00 | 0.00 | 0.00 | 83 | 1020.1 |
| 20260506185533 | 55 | 240 | 0.9 | 1.7 | 0.00 | 0.00 | 0.00 | 84 | 1020.1 |
| 20260506185030 | 55 | 203 | 2.6 | 2.6 | 0.00 | 0.00 | 0.00 | 84 | 1020.1 |
| 20260506184527 | 55 | 190 | 7.8 | 8.7 | 0.00 | 0.00 | 0.00 | 84 | 1020.1 |
| 20260506184024 | 55 | 186 | 3.5 | 4.3 | 0.00 | 0.00 | 0.00 | 85 | 1020.2 |
| 20260506183520 | 54 | 189 | 8.7 | 9.6 | 0.00 | 0.00 | 0.00 | 85 | 1020.6 |
| 20260506183017 | 54 | 224 | 5.2 | 6.1 | 0.00 | 0.00 | 0.00 | 86 | 1020.4 |
| 20260506182515 | 54 | 231 | 5.2 | 7.0 | 0.00 | 0.00 | 0.00 | 87 | 1020.3 |
| 20260506182011 | 54 | 221 | 3.5 | 4.3 | 0.00 | 0.00 | 0.00 | 88 | 1020.4 |
| 20260506181509 | 53 | 165 | 2.6 | 2.6 | 0.00 | 0.00 | 0.00 | 89 | 1020.2 |
| 20260506181006 | 53 | 240 | 3.5 | 5.2 | 0.00 | 0.00 | 0.00 | 90 | 1020.3 |
| 20260506180503 | 54 | 259 | 1.7 | 2.6 | 0.00 | 0.00 | 0.00 | 91 | 1020.4 |
| 20260506175959 | 54 | 260 | 2.6 | 4.3 | 0.00 | 0.00 | 0.00 | 90 | 1020.1 |
| 20260506175455 | 54 | 159 | 3.5 | 5.2 | 0.00 | 0.00 | 0.00 | 90 | 1019.9 |
| 20260506174952 | 54 | 202 | 4.3 | 5.2 | 0.00 | 0.00 | 0.00 | 90 | 1019.8 |
| 20260506174451 | 54 | 203 | 5.2 | 7.0 | 0.00 | 0.00 | 0.00 | 90 | 1019.9 |
| 20260506173946 | 54 | 200 | 2.6 | 4.3 | 0.00 | 0.00 | 0.00 | 91 | 1019.9 |
| 20260506173444 | 54 | 163 | 6.1 | 7.0 | 0.00 | 0.00 | 0.00 | 91 | 1019.9 |
| 20260506172941 | 54 | 188 | 2.6 | 2.6 | 0.00 | 0.00 | 0.00 | 92 | 1020.2 |
| 20260506172438 | 53 | 202 | 1.7 | 2.6 | 0.00 | 0.00 | 0.00 | 93 | 1020.2 |
| 20260506171934 | 53 | 182 | 4.3 | 5.2 | 0.00 | 0.00 | 0.00 | 93 | 1020.2 |
| 20260506171432 | 53 | 192 | 4.3 | 6.1 | 0.00 | 0.00 | 0.00 | 93 | 1020.0 |
| 20260506170929 | 53 | 200 | 4.3 | 5.2 | 0.00 | 0.00 | 0.00 | 93 | 1020.2 |
| 20260506170425 | 53 | 199 | 3.5 | 4.3 | 0.00 | 0.00 | 0.00 | 93 | 1020.4 |
| 20260506165919 | 53 | 222 | 2.6 | 4.3 | 0.00 | 0.00 | 0.00 | 93 | 1020.2 |
| 20260506165416 | 53 | 210 | 2.6 | 4.3 | 0.00 | 0.00 | 0.00 | 93 | 1020.1 |
| 20260506164907 | 53 | 198 | 7.0 | 8.7 | 0.00 | 0.00 | 0.00 | 92 | 1020.1 |
| 20260506164403 | 53 | 189 | 1.7 | 1.7 | 0.00 | 0.00 | 0.00 | 92 | 1020.0 |
| 20260506163901 | 53 | 216 | 1.7 | 2.6 | 0.00 | 0.00 | 0.00 | 92 | 1020.1 |
| 20260506163356 | 53 | 250 | 2.6 | 4.3 | 0.00 | 0.00 | 0.00 | 92 | 1019.9 |
| 20260506162851 | 53 | 211 | 2.6 | 2.6 | 0.00 | 0.00 | 0.00 | 92 | 1019.9 |
| 20260506162349 | 53 | 202 | 7.8 | 8.7 | 0.00 | 0.00 | 0.00 | 91 | 1019.9 |
| 20260506161846 | 54 | 261 | 3.5 | 5.2 | 0.00 | 0.00 | 0.00 | 92 | 1019.7 |
| 20260506161344 | 53 | 205 | 0.9 | 1.7 | 0.00 | 0.00 | 0.00 | 92 | 1019.5 |
| 20260506160842 | 53 | 190 | 6.1 | 7.0 | 0.00 | 0.00 | 0.00 | 93 | 1019.5 |
| 20260506160338 | 53 | 169 | 4.3 | 5.2 | 0.00 | 0.00 | 0.00 | 94 | 1019.4 |
| 20260506155836 | 52 | 193 | 7.8 | 8.7 | 0.00 | 0.00 | 0.00 | 94 | 1019.4 |
| 20260506155332 | 52 | 187 | 5.2 | 7.0 | 0.00 | 0.00 | 0.00 | 95 | 1019.5 |
| 20260506153445 | 52 | 187 | 8.7 | 11.3 | 0.00 | 0.00 | 0.00 | 97 | 1019.6 |
| 20260506152942 | 52 | 188 | 3.5 | 4.3 | 0.00 | 0.00 | 0.00 | 97 | 1019.8 |
| 20260506152439 | 52 | 242 | 1.7 | 2.6 | 0.00 | 0.00 | 0.00 | 97 | 1019.9 |
| 20260506151938 | 52 | 268 | 3.5 | 5.2 | 0.00 | 0.00 | 0.00 | 97 | 1019.9 |
| 20260506151434 | 52 | 195 | 2.6 | 4.3 | 0.00 | 0.00 | 0.00 | 97 | 1019.7 |
| 20260506150932 | 52 | 265 | 0.0 | 0.0 | 0.00 | 0.00 | 0.00 | 97 | 1019.7 |
| 20260506150428 | 52 | 268 | 2.6 | 2.6 | 0.00 | 0.00 | 0.00 | 96 | 1019.5 |
| 20260506145925 | 52 | 193 | 2.6 | 4.3 | 0.00 | 0.00 | 0.00 | 96 | 1019.5 |
| 20260506145421 | 52 | 193 | 3.5 | 5.2 | 0.00 | 0.00 | 0.00 | 96 | 1019.1 |
| 20260506144919 | 52 | 194 | 5.2 | 6.1 | 0.00 | 0.00 | 0.00 | 96 | 1019.2 |
| 20260506144415 | 52 | 213 | 0.0 | 0.9 | 0.00 | 0.00 | 0.00 | 96 | 1019.3 |
| 20260506143914 | 52 | 177 | 4.3 | 5.2 | 0.00 | 0.00 | 0.00 | 96 | 1019.5 |
| 20260506143410 | 52 | 230 | 1.7 | 2.6 | 0.00 | 0.00 | 0.00 | 96 | 1019.6 |
| 20260506142909 | 52 | 219 | 2.6 | 2.6 | 0.00 | 0.00 | 0.00 | 95 | 1019.6 |
| 20260506142406 | 52 | 242 | 4.3 | 5.2 | 0.00 | 0.00 | 0.00 | 95 | 1019.6 |
| 20260506141904 | 52 | 232 | 0.9 | 1.7 | 0.00 | 0.00 | 0.00 | 95 | 1019.4 |
| 20260506141402 | 52 | 228 | 0.9 | 1.7 | 0.00 | 0.00 | 0.00 | 95 | 1019.7 |
| 20260506140900 | 52 | 222 | 0.9 | 1.7 | 0.00 | 0.00 | 0.00 | 95 | 1019.2 |
| 20260506140356 | 52 | 186 | 2.6 | 5.2 | 0.00 | 0.00 | 0.00 | 94 | 1019.0 |
| 20260506135854 | 52 | 193 | 4.3 | 5.2 | 0.00 | 0.00 | 0.00 | 94 | 1019.4 |
| 20260506135350 | 52 | 227 | 2.6 | 2.6 | 0.00 | 0.00 | 0.00 | 94 | 1019.2 |
| 20260506134847 | 52 | 192 | 1.7 | 1.7 | 0.00 | 0.00 | 0.00 | 94 | 1019.2 |
| 20260506134343 | 52 | 258 | 0.9 | 0.9 | 0.00 | 0.00 | 0.00 | 94 | 1019.4 |
| 20260506133840 | 52 | 240 | 1.7 | 1.7 | 0.00 | 0.00 | 0.00 | 93 | 1019.3 |
| 20260506133337 | 52 | 201 | 3.5 | 4.3 | 0.00 | 0.00 | 0.00 | 93 | 1019.1 |
| 20260506132833 | 53 | 209 | 1.7 | 2.6 | 0.00 | 0.00 | 0.00 | 93 | 1019.1 |
| 20260506132331 | 53 | 262 | 1.7 | 1.7 | 0.00 | 0.00 | 0.00 | 93 | 1019.1 |
| 20260506131829 | 53 | 230 | 3.5 | 4.3 | 0.00 | 0.00 | 0.00 | 93 | 1019.1 |
| 20260506131325 | 53 | 283 | 0.9 | 0.9 | 0.00 | 0.00 | 0.00 | 93 | 1019.0 |
| 20260506130822 | 53 | 265 | 4.3 | 5.2 | 0.00 | 0.00 | 0.00 | 93 | 1018.9 |
| 20260506130318 | 53 | 216 | 2.6 | 5.2 | 0.00 | 0.00 | 0.00 | 92 | 1019.1 |
| 20260506125816 | 53 | 208 | 2.6 | 4.3 | 0.00 | 0.00 | 0.00 | 92 | 1018.7 |
| 20260506125314 | 53 | 207 | 3.5 | 4.3 | 0.00 | 0.00 | 0.00 | 92 | 1018.5 |
| 20260506124813 | 53 | 216 | 5.2 | 6.1 | 0.00 | 0.00 | 0.00 | 92 | 1018.6 |
| 20260506124309 | 53 | 221 | 0.9 | 1.7 | 0.00 | 0.00 | 0.00 | 92 | 1018.8 |
| 20260506123807 | 53 | 210 | 5.2 | 6.1 | 0.00 | 0.00 | 0.00 | 91 | 1018.6 |
| 20260506123306 | 53 | 202 | 6.1 | 7.0 | 0.00 | 0.00 | 0.00 | 91 | 1018.8 |
| 20260506122802 | 53 | 200 | 4.3 | 5.2 | 0.00 | 0.00 | 0.00 | 91 | 1018.6 |
| 20260506122259 | 53 | 218 | 1.7 | 1.7 | 0.00 | 0.00 | 0.00 | 91 | 1018.5 |
| 20260506121757 | 53 | 218 | 1.7 | 2.6 | 0.00 | 0.00 | 0.00 | 91 | 1018.5 |
| 20260506121254 | 53 | 212 | 3.5 | 4.3 | 0.00 | 0.00 | 0.00 | 91 | 1018.4 |
| 20260506120751 | 53 | 190 | 3.5 | 4.3 | 0.00 | 0.00 | 0.00 | 91 | 1018.6 |
| 20260506120249 | 53 | 161 | 2.6 | 2.6 | 0.00 | 0.00 | 0.00 | 91 | 1018.4 |
| 20260506115746 | 53 | 240 | 0.0 | 0.0 | 0.00 | 0.00 | 0.00 | 91 | 1018.5 |
| 20260506115244 | 53 | 178 | 5.2 | 6.1 | 0.00 | 0.00 | 0.00 | 91 | 1018.4 |
| 20260506114742 | 53 | 201 | 2.6 | 2.6 | 0.00 | 0.00 | 0.00 | 91 | 1018.3 |
| 20260506114239 | 53 | 217 | 2.6 | 2.6 | 0.00 | 0.00 | 0.00 | 91 | 1018.3 |
| 20260506113738 | 53 | 207 | 5.2 | 6.1 | 0.00 | 0.00 | 0.00 | 91 | 1018.2 |
| 20260506113235 | 53 | 191 | 4.3 | 5.2 | 0.00 | 0.00 | 0.00 | 91 | 1018.2 |
| 20260506112731 | 53 | 198 | 5.2 | 6.1 | 0.00 | 0.00 | 0.00 | 91 | 1018.1 |